Regional Weather Roundup
Issued by NWS New Orleans/Baton Rouge, LA

Home | Current Version | Previous Version | Text Only | Print | Product List | Glossary Off
Versions: 1 2 3 4 5 6 7 8 9 10 11 12 13 14 15 16 17 18 19 20 21 22 23 24 25 26 27 28 29 30 31 32 33 34 35 36 37 38 39 40 41 42 43 44 45 46 47 48 49 50

800
ASUS44 KLIX 240805
RWRLIX
NEW ORLEANS REGIONAL WEATHER ROUNDUP
NATIONAL WEATHER SERVICE NEW ORLEANS LA
200 AM CST MON NOV 24 2014

NOTE: "FAIR" INDICATES FEW OR NO CLOUDS BELOW 12,000 FEET WITH NO
      SIGNIFICANT WEATHER AND/OR OBSTRUCTIONS TO VISIBILITY.
      SKY/WX - SKY CONDITION AND SIGNIFICANT WEATHER.
      TMP - AIR TEMPERATURE.     DP    - DEWPOINT TEMPERATURE.
      RH  - RELATIVE HUMIDITY.   PRES  - PRESSURE.
      HI  - HEAT INDEX.          WCI   - WIND CHILL INDEX.

*  THESE STATIONS ARE NOT NWS OR FAA STATIONS AND ARE NOT UNDER
   NWS QUALITY CONTROL.

LAZ038-040-048-061>063-065>067-069-240900-
SOUTHEAST LOUISIANA

CITY           SKY/WX    TMP DP  RH WIND       PRES   REMARKS
N.O. AUDUBON   NOT AVBL
N.O. INTL ARPT CLOUDY    67  65  93 S10       29.75S FOG
N.O. LAKEFRONT PTCLDY    68  66  93 SW15      29.75S FOG
N.O. DOWNTOWN* CLOUDY    68  63  83 S8        29.76S
SLIDELL        CLOUDY    67  65  93 SW6       29.74S FOG
BATON ROUGE    PTCLDY    66  63  90 SW9       29.72S
BOOTHVILLE     CLOUDY    67  67 100 S6        29.78R FOG
BELLE CHASSE   CLOUDY    68  66  93 SW9       29.75S
BOGALUSA*        N/A     71  65  82 SW12      29.75S
NEW ROADS*       N/A     65  64  97 SW5       29.72R FOG
GONZALES*      FOG       63  63 100 CALM      29.73F VSB 1/4
HAMMOND*       CLOUDY    68  64  88 SW7       29.75S
HOUMA*         MOCLDY    68  68  99 S6        29.75S FOG
PORT FOURCHON* SUNNY     70  68  94 SW8       29.80S FOG

$$

MSZ070-080>082-240900-
SOUTHERN MISSISSIPPI

CITY           SKY/WX    TMP DP  RH WIND       PRES   REMARKS
MCCOMB         CLOUDY    65  62  90 S8        29.72R
GULFPORT       FOG       65  65 100 VRB5      29.75S VSB 1/2
BILOXI         FOG       63  63 100 SW9       29.76S VSB 1/2
PASCAGOULA     CLOUDY    67  66  97 VRB6      29.77R

$$

COASTAL OBSERVATIONS
LAKE AND NEARSHORE STATIONS

STATION/POSITION TIME  TEMP    WIND        PRES    WAVE
                       AIR SEA DIR/SP/G            HT/PER
                 (UTC) (F)     (DEG/KT/KT) (MB)    (FT/S)
PASCAGOULA       0800   66     210/ 12/ 14 1007.3
WAVELAND YACHT   0800   66     220/  4/  7 1006.7
GRAND ISLE       0800   70 65  230/  6/  9 1008.6
SOUTHWEST PASS   0800   68                 1008.6
NEW CANAL        0800   68 56  210/  8/ 11 1007.7
SHELL BEACH      0800   67 54  190/  7/  9 1007.6

OFFSHORE STATIONS

STATION/POSITION TIME  TEMP    WIND        PRES    WAVE
                       AIR SEA DIR/SP/G            HT/PER
                 (UTC) (F)     (DEG/KT/KT) (MB)    (FT/S)
64 S DAUPHIN ISL 0702   73 72  220/ 10/ 12 1008.9    5/ 7

$$




USA.gov is the U.S. government's official web portal to all federal, state and local government web resources and services.